Regional Weather Roundup
Issued by NWS Upton, NY

Current Version | Previous Version | Graphics & Text | Print | Product List | Glossary Off
Versions: 1 2 3 4 5 6 7 8 9 10 11 12 13 14 15 16 17 18 19 20 21 22 23 24 25 26 27 28 29 30 31 32 33 34 35 36 37 38 39 40 41 42 43 44 45 46 47 48 49 50

000
ASUS41 KOKX 250904
RWROKX

REGIONAL WEATHER ROUNDUP
NATIONAL WEATHER SERVICE NEW YORK NY
500 AM EDT MON JUL 25 2016

NOTE: "FAIR" INDICATES FEW OR NO CLOUDS BELOW 12,000 FEET WITH NO
SIGNIFICANT WEATHER AND/OR OBSTRUCTIONS TO VISIBILITY.

NYZ071-072-176-178-NJZ106-104-251000-
NEW YORK CITY METRO AREA

CITY           SKY/WX    TMP DP  RH WIND       PRES   REMARKS
Central Park   CLOUDY    80  65  59 VRB3      29.96F
LaGuardia APRT CLOUDY    81  67  62 S10       29.92F
Kennedy INTL   LGT RAIN  75  70  84 SW7       29.95S
Newark/Liberty CLOUDY    78  67  68 S9        29.93S
BRNX BOT. GARD   N/A     79  64  61 E2        29.94S
Wall St Helipt CLOUDY    79  66  65 W3        29.94F
Teterboro      CLOUDY    81  64  56 S8        29.92S
$$

NYZ177-179-078>081-251000-
LONG ISLAND NEW YORK

CITY           SKY/WX    TMP DP  RH WIND       PRES   REMARKS
FARMINGDALE    CLOUDY    76  68  76 SW6       29.95S
ISLIP          CLOUDY    76  73  91 S7        29.95S
SHIRLEY        CLOUDY    74  71  91 S6        29.96S
RIVERHEAD      NOT AVBL
WESTHAMPTON    CLEAR     69  68  96 S3        29.97S
SOUTHAMPTON      N/A     73  70  88 SW5       29.92S
BRIDGEHAMPTON    N/A     70  66  88 CALM      29.95S
EAST HAMPTON   FAIR      72  68  89 SW6       29.96R
MONTAUK POINT    N/A     74  68  81 SW5       29.97R
$$

NYZ052-065-067-251000-
HUDSON VALLEY

CITY           SKY/WX    TMP DP  RH WIND       PRES   REMARKS
WHITE PLAINS   CLOUDY    73  68  84 CALM      29.95R
NEWBURGH       CLEAR     72  68  88 CALM      29.95S
MONTGOMERY     CLOUDY    69  66  90 CALM      29.94S
POUGHKEEPSIE   CLOUDY    71  65  81 CALM      29.92S
ALBANY         CLOUDY    67  64  90 CALM      29.92F
$$

NJZ001-105-106-008-010-013-015-019>022-104-251000-
NEW JERSEY

CITY           SKY/WX    TMP DP  RH WIND       PRES   REMARKS
NEWARK/LIBERTY CLOUDY    78  67  68 S9        29.93S
TETERBORO      CLOUDY    81  64  56 S8        29.92S
CALDWELL       CLOUDY    80  65  59 W3        29.93F
MORRISTOWN     CLOUDY    77  63  61 CALM      29.94S
SOMERVILLE     CLOUDY    73  70  90 CALM      29.93S
SUSSEX         CLOUDY    71  68  90 CALM      29.95S
ANDOVER          N/A     72  67  84 CALM      29.95S
TRENTON        CLOUDY    78  67  68 SW6       29.96R
MILLVILLE      CLOUDY    78  76  93 CALM      29.94F FOG
ATLANTIC CITY  CLOUDY    79  76  90 S7        29.95S FOG
WRIGHTSTOWN    CLOUDY    75  73  94 S2        29.92S
TOMS RIVER     CLOUDY    77  75  94 CALM      29.96S
BELMAR         CLOUDY    77  71  82 S5        29.96F
$$

PAZ047>061-062-071-251000-
EASTERN PENNSYLVANIA

CITY           SKY/WX    TMP DP  RH WIND       PRES   REMARKS
PHILADELPHIA   TSTM      81  71  71 NW16      29.99R
ALLENTOWN      CLOUDY    76  69  79 W3        29.95S
SCRANTON       MOCLDY    75  69  81 SW6       29.97R
$$

CTZ002-004>006-009-010-012-RIZ004-006-007-MAZ004-011-015-251000-
SOUTHERN NEW ENGLAND
 IN CT

CITY           SKY/WX    TMP DP  RH WIND       PRES   REMARKS
BRADLEY INTL   PTCLDY    65  60  84 W3        29.94S
HARTFORD       CLEAR     72  67  84 CALM      29.94S
DANBURY        CLOUDY    69  66  90 CALM      29.97R
WTRBRY/OXFORD    N/A     66  63  88 CALM      29.97S
BRIDGEPORT     CLOUDY    76  69  79 CALM      29.94S
MERIDEN        CLEAR     67  64  90 CALM      29.95R
NEW HAVEN      CLOUDY    71  69  93 CALM      29.95S
CHESTER        FAIR      72  70  94 VRB5      29.96S
GROTON         PTCLDY    69  66  90 CALM      29.94F
WILLIMANTIC    NOT AVBL

 IN RI

CITY           SKY/WX    TMP DP  RH WIND       PRES   REMARKS
PROVIDENCE     CLOUDY    69  65  86 SW3       29.96R
BLOCK ISLAND   CLEAR     69  65  86 SW8       29.96S
WESTERLY       CLOUDY    66  61  84 CALM      29.96S

 IN MA

CITY           SKY/WX    TMP DP  RH WIND       PRES   REMARKS
BOSTON         PTCLDY    68  63  84 CALM      29.95R
WORCESTER      CLEAR     70  50  49 SW5       29.98S
WESTFIELD      CLEAR     65  57  75 N3        29.95S
PROVINCETOWN   CLEAR     64  63  96 S3        29.96R
NANTUCKET      PTCLDY    69  67  93 SW6       29.96F
$$

ANZ330-335-338-340-345-350-353-355-251000-
COASTAL MARINE OBSERVATIONS


STATION/POSITION TIME  SKY/WX   TEMP    WIND        PRES    VSBY  WAVE
                                AIR SEA DIR/SP/G                  HT/PER
                 (UTC)          (F)     (DEG/KT/KT) (MB)    (MI)  (FT/S)
NY HARB ENTRANCE 0750            75 74  210/  8/ 10 1014.0          2/ 4
20S FIRE ISLAND  0750            75 73  220/  8/  8 1014.1          2/ 6
GREAT SOUTH BAY  0815            76 81  230/  8/ 12   N/A
23 SSW MONTAUK P 0750            74 72  220/  6/  8 1014.9          2/ 6
15 E BARNEGAT LI 0822               76                N/A           2/ 5
HUDSON CANYON    0750            77 78              1014.9          2/ 6
KINGS POINT      0800            78 72              1013.6
EXECUTION ROCKS  0800            73     360/  2/  4   N/A
CENTRAL LI SOUND 0800            75 74  210/  8/ 10   N/A           1/ 3
EASTERN LI SOUND 0800            69 68  100/  2/  2   N/A
ROBBINS REEF     0800            78     180/  7/  8 1013.2
$$


>>>>>>>>>>>>>>>>>>>>>>>>>>>> KEY <<<<<<<<<<<<<<<<<<<<<<<<<<<
>                                                          <
>     SKY/WX - SKY CONDITION/PRESENT WEATHER               <
>     TMP    - TEMPERATURE IN FAHRENHEIT                   <
>     DP     - DEWPOINT IN FAHRENHEIT                      <
>     RH     - RELATIVE HUMIDITY IN PERCENT                <
>     WIND   - DIRECTION AND SPEED IN MPH                  <
>     PRES   - MEAN SEA LEVEL PRESSURE IN INCHES OF HG     <
>     WCI    - WIND CHILL INDEX                            <
>     VSB    - VISIBILITY IN MILES                         <
>     HX     - HEAT INDEX                                  <
>     TC     - TEMPERATURE IN CELSIUS                      <
>     VRB    - VARIABLE WIND DIRECTION                     <
>                                                          <
>>>>>>>>>>>>>>>>>>>>>>>>>>>> KEY <<<<<<<<<<<<<<<<<<<<<<<<<<<





USA.gov is the U.S. government's official web portal to all federal, state and local government web resources and services.